This demonstration page uses our WeatherBlox Daily Observations layout. Learn more.

Hourly Observations for August 9, 2016

Temp ( °F °C ) Dew Point ( °F °C ) Humidity (%) Winds ( mph kmh ) Pressure ( in mb ) Visibility ( mi km ) Precip ( " mm )
12:15 am 00:15 Partly Cloudy 70 21 67 19.5 91 91 SSE 6 9 29.85 1011 10 16.09344 0 0
12:35 am 00:35 Partly Cloudy 70 21 67 19.5 91 91 SSE 3 6 29.85 1011 10 16.09344 0 0
12:55 am 00:55 Mostly Cloudy 69 20.8 67 19.5 92 92 SSE 6 9 29.85 1011 10 16.09344 0 0
1:15 am 01:15 Partly Cloudy 69 20.7 67 19.5 93 93 SE 6 9 29.85 1011 10 16.09344 0 0
1:35 am 01:35 Clear 69 20.5 67 19.3 93 93 Calm 29.85 1011 10 16.09344 0 0
1:55 am 01:55 Clear 68 20 66 18.9 93 93 SE 5 7 29.85 1011 7 11.265408 0 0
2:15 am 02:15 Mostly Cloudy 69 20.5 67 19.5 94 94 SE 7 11 29.85 1011 7 11.265408 0 0
2:35 am 02:35 Mostly Cloudy 69 20.7 67 19.7 94 94 SE 6 9 29.85 1011 7 11.265408 0 0
2:55 am 02:55 Cloudy 70 21.1 68 20 93 93 SE 7 11 29.85 1011 10 16.09344 0 0
3:15 am 03:15 Mostly Cloudy 70 21.1 68 20 93 93 SSE 9 15 29.85 1011 10 16.09344 0 0
3:35 am 03:35 Partly Cloudy 70 21 68 19.8 93 93 SE 5 7 29.85 1011 10 16.09344 0 0
3:55 am 03:55 Clear 69 20.6 67 19.6 94 94 ESE 5 7 29.85 1011 7 11.265408 0 0
4:15 am 04:15 Clear with Mist and Fog 68 20.2 67 19.3 95 95 SE 5 7 29.85 1011 5 8.04672 0 0
4:35 am 04:35 Mostly Cloudy with Mist and Fog 68 20.1 67 19.2 95 95 Calm 29.85 1011 4 6.437376 0 0
4:55 am 04:55 Mostly Cloudy with Mist and Fog 69 20.5 67 19.6 95 95 SE 3 6 29.85 1011 5 8.04672 0 0
5:15 am 05:15 Partly Cloudy with Mist and Fog 68 20.1 67 19.3 95 95 SE 6 9 29.85 1011 5 8.04672 0 0
5:35 am 05:35 Clear with Mist and Fog 68 20.1 67 19.3 95 95 SE 7 11 29.85 1011 5 8.04672 0 0
5:55 am 05:55 Clear with Mist and Fog 68 20.1 67 19.3 95 95 SE 7 11 29.83 1010 4 6.437376 0 0
6:15 am 06:15 Clear with Mist and Fog 68 20.2 67 19.5 96 96 SE 7 11 29.83 1010 5 8.04672 0 0
6:35 am 06:35 Clear with Mist and Fog 69 20.3 67 19.5 95 95 SSE 8 13 29.83 1010 5 8.04672 0 0
6:55 am 06:55 Sunny with Mist and Fog 69 20.5 67 19.7 95 95 SSE 8 13 29.83 1010 4 6.437376 0 0
7:15 am 07:15 Mostly Cloudy with Mist and Fog 69 20.8 68 20 95 95 SSE 7 11 29.83 1010 4 6.437376 0 0
7:35 am 07:35 Cloudy with Mist and Fog 70 21.1 69 20.3 95 95 SSE 6 9 29.85 1011 5 8.04672 0 0
7:55 am 07:55 Cloudy with Mist and Fog 71 21.5 69 20.7 95 95 S 7 11 29.85 1011 4 6.437376 0 0
8:15 am 08:15 Cloudy with Mist and Fog 71 21.7 69 20.8 95 95 S 8 13 29.85 1011 4 6.437376 0 0
8:35 am 08:35 Cloudy with Mist and Fog 71 21.7 69 20.8 95 95 S 7 11 29.85 1011 3 4.828032 0 0
8:55 am 08:55 Cloudy with Mist and Fog 71 21.9 70 21 95 95 S 6 9 29.88 1012 4 6.437376 0 0
9:15 am 09:15 Cloudy 72 22.2 70 20.9 92 92 S 7 11 29.88 1012 7 11.265408 0 0
9:35 am 09:35 Cloudy 73 22.8 69 20.7 88 88 S 8 13 29.85 1011 10 16.09344 0 0
9:55 am 09:55 Cloudy 74 23.6 68 20.2 81 81 SSW 9 15 29.85 1011 10 16.09344 0 0
10:15 am 10:15 Cloudy 76 24.2 68 20.2 78 78 S 9 15 29.85 1011 10 16.09344 0 0
10:35 am 10:35 Mostly Cloudy 77 25.1 69 20.4 75 75 SSW 7 11 29.83 1010 10 16.09344 0 0
10:55 am 10:55 Partly Cloudy 79 26 69 20.3 71 71 S 7 11 29.83 1010 10 16.09344 0 0
11:15 am 11:15 Sunny 80 26.5 68 20.2 68 68 S 3 6 29.8 1009 10 16.09344 0 0
11:35 am 11:35 Sunny 80 26.6 68 19.9 67 67 S 5 7 29.8 1009 10 16.09344 0 0
11:55 am 11:55 Sunny 82 27.9 68 20 62 62 SE 6 9 29.8 1009 10 16.09344 0 0
12:15 pm 12:15 Sunny 83 28.3 68 19.8 60 60 SE 5 7 29.8 1009 10 16.09344 0 0
12:35 pm 12:35 Sunny 84 28.9 69 20.4 60 60 SE 6 9 29.8 1009 10 16.09344 0 0
12:55 pm 12:55 Sunny 85 29.7 67 19.3 54 54 SSE 10 17 29.8 1009 10 16.09344 0 0
1:15 pm 13:15 Sunny 86 30.2 65 18.5 50 50 SSE 9 15 29.77 1008 10 16.09344 0 0
1:35 pm 13:35 Sunny 87 30.3 67 19.5 52 52 S 9 15 29.77 1008 10 16.09344 0 0
1:55 pm 13:55 Sunny 88 30.9 67 19.5 51 51 SSE 10 17 29.77 1008 10 16.09344 0 0
2:15 pm 14:15 Sunny 88 30.9 67 19.5 51 51 SSE 12 19 29.77 1008 10 16.09344 0 0
2:35 pm 14:35 Sunny 89 31.5 67 19.6 49 49 SSE 14 22 29.74 1007 10 16.09344 0 0
2:55 pm 14:55 Sunny 89 31.6 66 18.9 47 47 SSE 13 20 29.74 1007 10 16.09344 0 0
3:15 pm 15:15 Sunny 90 32.3 66 18.9 45 45 SSE 14 22 29.74 1007 10 16.09344 0 0
3:35 pm 15:35 Sunny 90 32.1 64 18 43 43 SSE 10 17 29.74 1007 10 16.09344 0 0
3:55 pm 15:55 Sunny 91 32.5 63 17.4 40 40 S 13 20 29.74 1007 10 16.09344 0 0
4:15 pm 16:15 Sunny 91 32.8 63 17.4 40 40 SE 12 19 29.74 1007 10 16.09344 0 0
4:35 pm 16:35 Sunny 91 32.7 63 17.2 40 40 SSE 12 19 29.74 1007 10 16.09344 0 0
4:55 pm 16:55 Sunny 91 33 64 17.7 40 40 SE 15 24 29.74 1007 10 16.09344 0 0
5:15 pm 17:15 Sunny 91 33 64 17.8 40 40 SSE 12 19 29.74 1007 10 16.09344 0 0
5:35 pm 17:35 Sunny 90 32.4 63 17.4 41 41 SSE 10 17 29.74 1007 10 16.09344 0 0
5:55 pm 17:55 Sunny 91 32.5 65 18.6 44 44 SSE 10 17 29.74 1007 10 16.09344 0 0
6:15 pm 18:15 Sunny 90 32.3 65 18.4 44 44 SSE 13 20 29.74 1007 10 16.09344 0 0
6:35 pm 18:35 Sunny 89 31.7 67 19.5 48 48 SSE 9 15 29.74 1007 10 16.09344 0 0
6:55 pm 18:55 Sunny 89 31.5 67 19.6 49 49 SSE 10 17 29.74 1007 10 16.09344 0 0
7:15 pm 19:15 Sunny 88 31 67 19.5 50 50 SSE 9 15 29.74 1007 10 16.09344 0 0
7:35 pm 19:35 Hazy 86 30.1 67 19.4 53 53 SSE 8 13 29.74 1007 5 8.04672 0 0
7:55 pm 19:55 Sunny 85 29.3 68 19.9 57 57 SSE 6 9 29.77 1008 10 16.09344 0 0
8:15 pm 20:15 Sunny 83 28.1 68 20 61 61 SSE 7 11 29.77 1008 10 16.09344 0 0
8:35 pm 20:35 Sunny 81 27.1 68 19.8 64 64 SE 6 9 29.77 1008 10 16.09344 0 0
8:55 pm 20:55 Clear 78 25.7 68 20 71 71 SE 6 9 29.8 1009 10 16.09344 0 0
9:15 pm 21:15 Clear 77 25 68 20 74 74 SE 6 9 29.8 1009 10 16.09344 0 0
9:35 pm 21:35 Clear 75 23.9 68 20 79 79 ESE 5 7 29.83 1010 10 16.09344 0 0
9:55 pm 21:55 Clear 74 23.4 68 20.2 82 82 ESE 7 11 29.83 1010 10 16.09344 0 0
10:15 pm 22:15 Clear 73 23 68 20.2 84 84 SE 6 9 29.83 1010 10 16.09344 0 0
10:35 pm 22:35 Clear 74 23.1 68 20 83 83 SE 5 7 29.83 1010 10 16.09344 0 0
10:55 pm 22:55 Clear 73 22.7 68 19.8 84 84 SE 5 7 29.83 1010 10 16.09344 0 0
11:15 pm 23:15 Clear 72 22.3 67 19.7 85 85 SE 5 7 29.85 1011 10 16.09344 0 0
11:35 pm 23:35 Clear 72 22.1 67 19.5 85 85 SE 5 7 29.85 1011 10 16.09344 0 0
11:55 pm 23:55 Clear 72 22.2 68 19.8 86 86 SSE 6 9 29.88 1012 10 16.09344 0 0

Powered by AerisWeather